Regional Weather Roundup
Issued by NWS Newport/Morehead, NC

Current Version | Previous Version | Graphics & Text | Print | Product List | Glossary Off
Versions: 1 2 3 4 5 6 7 8 9 10 11 12 13 14 15 16 17 18 19 20 21 22 23 24 25 26 27 28 29 30 31 32 33 34 35 36 37 38 39 40 41 42 43 44 45 46 47 48 49 50

000
ASUS42 KMHX 011413
RWRMHX
WEATHER ROUNDUP FOR EASTERN NORTH CAROLINA
NATIONAL WEATHER SERVICE NEWPORT/MOREHEAD CITY NC
1000 AM EDT SUN MAY 01 2016

NOTE: "FAIR" INDICATES FEW OR NO CLOUDS BELOW 12,000 FEET
WITH NO SIGNIFICANT WEATHER AND/OR OBSTRUCTIONS TO VISIBILITY

NCZ015>017-031-032-045>047-102-103-011500-
NORTH COAST

CITY           SKY/WX    TMP DP  RH WIND       PRES   REMARKS
EDENTON        CLOUDY    65  62  90 SE5       30.13S
ELIZABETH CITY CLOUDY    62  56  80 E6        30.13F
KITTY HAWK     CLOUDY    65  60  83 E5        30.12S
MANTEO         NOT AVBL

$$

NCZ045>047-081-094-103-104-011500-
CENTRAL COAST

CITY           SKY/WX    TMP DP  RH WIND       PRES   REMARKS
FRISCO         MOSUNNY   71  62  73 S6        30.14R
SWANQUARTER    NOT AVBL

$$

NCZ095-097-098-100-101-011500-
SOUTHERN COAST

CITY           SKY/WX    TMP DP  RH WIND       PRES   REMARKS
BEAUFORT       PTSUNNY   72  65  78 S9        30.13R
CEDAR ISLAND   NOT AVBL
JACKSONVILLE     N/A     69  63  81 CALM      30.13R
PINEY ISLAND   NOT AVBL
WILMINGTON     PTSUNNY   74  64  71 S13G20    30.12R


$$

NCZ011>013-027>030-043-044-078>080-089-090>093-098-011500-
COASTAL PLAIN

CITY           SKY/WX    TMP DP  RH WIND       PRES   REMARKS
AHOSKIE        LGT RAIN  58  55  88 SE3       30.13F
CLINTON        CLOUDY    70  65  86 S5        30.10F
ELIZABETHTOWN  CLOUDY    71  65  81 S7        30.10S
GOLDSBORO      CLOUDY    68  68 100 E5        30.09F
GREENVILLE     CLOUDY    63  59  88 CALM      30.13F
HAVELOCK       PTSUNNY   71  65  81 S5        30.13S
KENANSVILLE    PTSUNNY   68  63  83 SE5       30.12F
KINSTON        CLOUDY    66  61  82 SE6       30.13S
NEW BERN       CLOUDY    70  63  78 SE3       30.13F
RICHLANDS      CLOUDY    69  65  86 SE5       30.12S
ROCKY MOUNT    CLOUDY    62  58  86 SE7       30.11F
WASHINGTON     MOSUNNY   65  59  82 CALM      30.13S
WHITEVILLE     CLOUDY    73  64  75 SE8G17    30.09F

$$

AMZ130-135-150-152-154-156-158-170-250-252-270-ANZ085-086-088-633-658-670-011500-
MARINE OBSERVATIONS

STATION/POSITION TIME  TEMP    WIND        PRES    WAVE   SWELL
                       AIR SEA DIR/SP/G            HT/PER HT/PER
                 (UTC) (F)     (DEG/KT/KT) (MB)    (FT/S) (FT/S)
CHESAPEAKE LIGHT 1400   55      90/ 13/ 14 1021.3
64 E VA BEACH    1350   56 53   80/  8/ 10 1020.2    5/10   5/10
DUCK             1300   58 66  100/  7/  8 1019.8
2 E DUCK         1311      59                N/A     4/11   2/11
OREGON INLET     1300   62 60   90/  5/  8 1020.0
13E OREGON INLT  1400      58                N/A     5/10   5/10
HATTERAS CG      1300   67 66  120/  4/  7 1019.6
DIAMOND BUOY     1350   73 73  180/ 12/ 14 1020.3    4/10   3/10
CAPE LOOKOUT     1400   69     160/  7/  8 1019.8
BEAUFORT LAB     1300   71 66  180/  7/  9 1018.8
30 SE NEW RVR IN 1325      68                N/A     4/ 9   2/11
27 SE WRIGHTSVLE 1308   74 71  180/ 14/ 19 1018.7
5 SE WRIGHTSVLE  NOT AVBL
225 S CAPE HAT   1350   72     110/ 12/ 14 1020.7    4/ 9   3/ 9
41 SE CHARLESTON 1350   75 72  170/ 12/ 14 1018.6    5/ 6   3/ 6

$$




USA.gov is the U.S. government's official web portal to all federal, state and local government web resources and services.